Torna al catalogo

FENGYUN 1C DEB

AttivoSSO
NORAD 31336·DEBRIS·🇨🇳 China

Lanciato May 10, 1999 da Taiyuan Satellite Launch Center

Loading…

Prossimi Passaggi (prossime 24 ore)

TLE

AggiornatoSource: Space-Track

Epoca: Sep 14, 2026, 15:13 UTC

1 31336U 99025BQQ 26257.63443226  .00000473  00000-0  15916-3 0  9992
2 31336  98.4295 313.6529 0092393  13.3930 139.2092 14.39175875 17441

Traccia FENGYUN 1C DEB in tempo reale con AllMySat

Download on the App Store